Theta_e
297 296 296 296 296 297 297 297 298 299 299 300 301 302 303 304 305 307 305 302 302 304 305 306 307 308 308 307 305 306 306 305 304 304 305 306 306 306 306 307 307 308 311 314 317 318 317 316 317 318 318 318 317 316 315 313 311 314 315 315 317 318 319 319 318 317 316 314 312 313 314 315 317 318 314 315 316 316 316 316 317 317 317 319 318 319 322
297 296 296 296 296 297 297 297 298 299 299 300 301 302 303 303 304 306 304 303 306 307 305 306 308 308 307 306 306 305 304 304 303 303 305 305 305 307 308 308 309 310 312 315 316 316 318 317 316 318 319 317 315 315 315 313 314 317 315 315 317 315 315 317 318 317 317 316 315 315 316 317 318 316 314 314 314 314 316 317 317 318 318 318 316 318 322
296 296 296 296 296 297 298 298 298 298 299 300 301 302 302 303 305 305 303 304 307 307 307 307 307 307 307 309 309 306 303 304 304 303 305 304 304 308 311 309 309 312 315 316 315 316 319 319 317 317 318 317 314 314 316 317 320 321 316 315 318 316 313 316 318 319 317 317 317 317 318 318 316 314 314 314 313 315 318 317 315 317 317 316 317 320 319
296 296 296 296 297 298 298 298 298 299 299 300 301 302 303 304 305 304 304 305 306 307 308 308 308 308 309 310 310 306 304 305 305 305 306 306 307 310 311 309 310 314 316 318 317 316 318 319 318 318 319 317 313 314 318 321 322 321 316 314 316 315 312 314 318 319 317 317 317 316 316 318 319 316 314 315 312 313 317 315 314 317 317 317 320 320 317
296 296 296 296 297 298 299 299 299 298 299 301 302 303 303 304 305 305 306 306 306 307 308 309 310 310 308 308 308 307 306 307 308 308 307 307 308 310 310 310 312 316 317 320 319 316 317 318 318 318 317 316 314 313 316 319 320 319 316 314 315 315 314 314 315 316 315 314 315 314 314 316 317 315 315 315 314 315 321 321 318 317 317 319 320 317 316
296 296 296 297 298 298 298 299 299 298 299 301 302 303 303 305 306 306 307 307 307 307 307 308 310 310 309 310 310 310 309 310 311 309 308 308 308 310 314 311 310 314 317 320 319 317 318 319 318 317 317 317 317 314 313 314 317 318 316 315 315 315 314 314 314 314 313 313 313 313 313 313 314 314 315 315 315 318 323 321 316 318 320 320 319 316 316
296 296 297 298 298 298 298 299 299 299 300 302 303 303 304 304 306 306 308 309 308 307 308 309 311 311 311 311 312 312 311 311 310 307 309 313 309 310 315 311 309 313 315 318 319 318 318 319 317 318 318 318 319 318 315 313 313 315 317 315 313 314 314 313 313 314 313 312 313 312 312 313 313 313 313 314 314 315 317 316 315 317 319 318 316 314 313
296 296 297 298 297 298 298 299 299 300 302 303 303 304 304 305 306 307 308 309 309 308 309 310 312 312 311 311 312 312 311 311 310 306 308 314 312 310 311 309 308 311 312 314 316 316 318 320 319 318 319 318 318 318 318 315 313 316 317 316 315 315 315 313 313 314 314 312 312 313 313 313 312 312 312 313 313 313 314 314 314 315 315 313 312 312 310
296 296 297 297 297 298 298 299 300 301 303 303 304 305 304 304 305 306 308 310 310 309 309 310 313 312 310 311 311 311 311 310 310 309 307 309 311 310 310 309 309 310 311 312 311 310 313 316 315 315 317 315 314 315 313 313 317 320 318 317 317 316 314 312 313 316 315 313 312 313 313 313 313 313 312 312 313 313 312 312 312 313 313 312 312 312 309
296 297 297 297 297 298 299 300 301 302 304 304 304 304 304 304 306 307 308 309 309 309 309 309 312 311 309 312 312 311 310 308 310 312 309 306 307 308 308 310 311 311 312 311 309 308 310 311 310 310 312 310 310 311 311 311 315 318 316 315 315 315 314 313 315 317 316 313 312 313 313 315 316 313 311 311 312 312 311 311 311 312 312 312 313 311 307
297 297 298 297 297 298 299 300 301 303 304 304 303 303 304 304 306 307 308 309 308 307 308 309 312 312 309 310 311 310 311 311 311 313 312 309 307 307 308 310 311 310 310 309 308 309 310 311 311 311 310 310 309 310 311 310 311 313 315 314 314 314 314 314 314 317 316 314 313 313 314 316 315 311 309 310 311 310 310 310 309 309 310 310 309 307 304
298 298 298 298 298 298 299 300 302 303 304 304 303 304 304 303 305 306 307 308 307 305 307 309 310 309 307 307 309 308 309 310 309 310 311 310 307 306 307 310 312 311 309 308 309 310 310 311 311 311 310 311 311 310 310 310 310 310 312 314 314 314 314 312 313 315 315 313 314 316 316 314 311 308 308 309 309 308 308 308 307 307 307 307 306 304 304
298 299 298 298 298 299 299 301 302 304 304 304 303 303 302 302 303 304 305 307 308 306 308 308 306 305 305 306 307 306 305 306 306 306 308 308 308 306 305 308 310 309 308 308 308 309 311 312 312 313 312 312 313 311 309 309 310 311 312 312 313 314 313 312 312 314 315 314 315 316 314 310 309 309 308 309 309 309 309 309 307 306 306 306 305 303 303
299 299 298 298 298 299 300 302 304 303 303 303 302 303 303 302 303 303 304 306 308 305 305 307 307 306 306 306 306 307 306 306 306 306 306 306 306 306 306 307 308 307 307 308 308 309 311 313 313 313 313 314 315 313 310 309 309 310 310 310 312 313 314 314 313 312 313 313 313 312 311 310 310 309 308 309 310 310 310 310 308 306 305 305 304 303 302
299 299 298 298 298 300 301 303 303 303 302 303 303 303 304 303 303 304 303 305 308 306 304 305 306 306 306 306 306 308 309 309 308 307 306 305 305 306 307 307 307 308 307 309 310 311 311 313 313 313 312 312 312 312 311 310 309 309 308 308 310 312 314 315 314 311 310 312 312 312 313 313 311 310 309 309 309 309 309 310 309 306 305 304 303 303 302
299 299 298 298 299 301 302 303 303 303 303 303 304 304 303 303 304 306 304 303 307 307 304 303 303 303 305 305 305 306 309 310 310 309 309 307 306 306 308 307 308 309 308 308 309 311 312 312 311 311 310 308 310 311 311 310 311 310 309 309 310 311 311 312 313 311 310 312 313 312 313 312 310 309 308 308 309 308 308 311 311 307 304 304 303 303 302
299 298 298 299 301 302 303 303 302 302 303 303 305 305 305 305 306 307 306 304 305 304 303 304 304 304 306 307 307 306 306 306 308 308 309 307 306 306 307 308 308 308 308 310 310 311 312 310 307 309 309 306 308 311 311 310 312 312 311 311 311 310 309 310 312 311 309 310 310 310 310 309 308 308 308 307 308 308 310 313 312 306 303 304 303 303 302
299 298 299 301 302 303 303 301 301 302 303 305 306 306 305 306 307 307 307 305 304 304 304 305 305 305 307 308 308 306 305 306 307 307 307 306 305 307 307 307 308 307 308 312 312 310 310 309 307 309 310 306 307 309 310 311 312 310 308 308 309 309 307 307 309 309 309 309 310 309 308 307 307 307 307 307 308 309 311 312 310 305 304 304 303 303 302
299 299 300 301 303 302 301 300 301 303 305 306 307 306 305 306 307 306 305 304 304 305 306 306 307 307 307 307 307 306 306 307 307 308 309 307 306 307 306 306 308 308 307 310 311 307 308 308 306 307 309 309 307 307 308 309 308 306 305 307 308 309 308 307 307 307 307 308 309 309 308 307 306 307 307 307 309 310 310 308 306 305 305 304 303 303 302
299 299 300 302 302 301 300 300 302 304 306 307 307 306 305 306 306 306 306 304 303 305 306 307 308 308 308 308 308 307 307 306 306 308 311 309 306 307 307 307 308 308 308 311 309 305 306 309 307 306 309 309 307 306 306 305 305 304 305 308 308 307 308 308 306 304 305 307 309 310 310 307 305 307 308 308 310 309 306 304 305 306 305 304 304 303 303
300 299 301 302 302 301 300 302 304 305 306 306 306 306 306 306 305 306 306 305 304 305 307 307 307 308 308 309 309 309 308 307 306 307 308 307 306 308 310 309 308 308 309 310 308 305 307 309 307 307 308 308 306 306 307 306 305 303 303 306 306 305 306 307 305 303 306 308 308 308 307 305 305 307 308 307 307 305 304 305 305 305 304 304 304 303 303
300 300 301 303 302 300 301 303 305 306 306 306 305 305 305 305 305 305 306 305 304 304 305 306 306 307 308 309 309 309 309 308 308 307 307 307 306 307 308 308 308 308 308 308 308 307 308 308 307 307 307 306 306 305 304 306 308 305 303 305 307 305 304 305 305 304 305 306 306 304 304 303 304 305 305 304 304 304 304 305 304 303 304 304 303 303 303
300 300 302 302 301 301 303 303 304 305 305 304 304 304 304 304 304 304 305 304 304 305 305 306 307 307 308 308 309 309 309 309 309 308 308 308 308 307 307 308 309 308 308 308 309 309 308 307 307 307 307 305 304 304 304 306 307 305 304 305 305 304 304 305 305 304 304 304 304 303 303 303 303 303 303 303 303 303 303 304 303 303 303 303 303 303 302
299 300 301 302 301 302 303 303 304 305 305 304 304 303 303 303 304 304 304 304 305 306 306 306 306 306 306 307 308 309 309 309 309 309 308 308 309 309 309 308 309 309 308 308 308 308 307 305 304 306 306 304 303 305 306 306 305 304 305 305 304 304 305 305 305 305 305 305 304 303 303 303 302 302 302 302 302 303 303 303 303 302 302 303 302 301 300
299 300 301 301 301 303 303 303 304 305 305 304 304 303 303 303 304 304 304 305 305 305 306 305 304 304 306 307 308 309 309 309 309 309 309 309 308 309 309 309 309 309 308 307 307 307 306 304 304 306 306 303 303 305 305 305 305 305 306 306 305 304 304 304 304 304 305 304 303 302 302 302 302 302 302 301 302 302 302 302 302 302 302 301 300 300 300
299 300 301 302 302 303 304 303 303 304 305 305 304 304 304 304 304 305 305 305 305 305 305 305 304 305 307 307 307 308 309 309 308 308 308 309 309 308 309 309 308 308 307 307 307 305 304 303 304 306 305 304 304 304 304 304 305 304 304 305 304 304 304 304 303 304 303 303 302 301 302 302 301 301 301 301 301 301 301 302 301 301 300 300 299 299 299
299 300 301 302 302 304 305 304 304 304 304 305 305 304 304 304 304 305 305 305 306 306 305 304 304 304 306 306 306 306 307 308 308 307 308 308 308 308 308 308 307 307 307 307 306 305 304 304 304 304 304 303 303 303 303 303 304 304 303 303 303 304 304 303 303 304 304 303 302 303 303 303 301 301 301 301 301 301 301 301 300 300 299 299 299 299 299
298 300 302 302 302 303 305 305 305 304 305 305 305 304 304 304 304 305 305 305 306 306 305 304 304 304 304 304 304 305 306 307 307 307 306 307 307 307 307 307 307 307 306 306 305 304 304 304 303 302 302 302 303 303 302 302 303 304 303 302 302 303 304 303 304 305 305 303 303 303 303 302 301 300 301 301 301 301 300 300 300 299 299 299 299 298 298
297 299 302 302 302 303 304 305 305 305 305 304 304 304 304 304 304 305 305 305 306 306 305 304 304 304 304 303 304 304 305 306 307 306 306 306 306 306 306 306 306 305 305 304 304 303 302 302 302 302 302 302 303 303 301 301 302 303 302 301 301 302 303 303 303 304 304 303 302 302 302 302 301 301 301 300 300 300 300 299 299 299 299 298 297 297 297
297 298 301 303 302 303 304 305 305 306 306 305 304 304 304 304 305 305 305 305 305 305 305 305 304 304 303 303 303 304 305 305 306 305 305 305 305 305 305 305 304 304 304 303 303 302 301 301 301 302 302 302 302 301 301 302 302 302 301 300 300 302 302 301 302 303 302 302 301 301 301 301 300 300 300 300 300 299 299 299 298 298 298 297 296 296 297
296 297 300 303 303 302 303 305 305 305 306 305 304 304 304 305 305 305 305 305 306 305 305 304 304 304 303 303 303 303 304 305 305 305 304 304 304 304 304 304 304 304 304 303 302 301 301 300 301 302 302 302 302 301 301 302 303 302 301 300 300 301 301 301 302 302 302 301 301 301 301 300 300 300 300 299 298 298 297 297 297 297 297 297 297 297 297
296 296 299 303 303 302 303 305 305 305 305 305 304 304 304 304 304 304 305 305 305 305 305 305 304 303 303 303 303 303 304 304 304 304 304 304 304 304 304 304 304 303 303 303 302 302 301 300 301 302 302 302 302 301 301 302 302 301 300 300 300 301 301 301 302 301 301 301 301 301 300 300 300 300 299 299 298 297 297 297 297 297 297 297 297 297 297
296 296 298 302 303 302 303 304 304 304 305 304 304 304 304 304 304 304 304 305 305 305 305 305 304 302 302 303 303 303 303 304 303 303 303 303 303 303 303 303 303 303 303 302 301 301 301 301 302 302 301 301 301 301 301 301 301 300 300 300 300 300 300 301 301 301 301 301 301 301 301 300 299 299 298 297 297 297 297 297 297 297 297 297 297 297 297
296 296 298 301 302 302 302 303 304 304 304 304 304 305 304 304 304 304 304 305 305 305 304 304 305 304 303 303 303 303 303 303 303 302 302 302 302 303 303 303 303 303 302 301 301 301 301 301 302 302 301 300 300 300 300 300 300 299 300 299 300 300 300 300 301 301 301 300 300 300 300 299 298 298 297 297 297 297 297 297 297 297 297 298 298 298 299
296 296 298 300 302 302 302 303 303 304 304 304 304 304 304 304 304 304 305 304 305 305 304 303 304 305 304 304 304 303 302 302 301 302 302 302 302 302 302 302 302 302 302 301 300 300 300 301 301 301 299 299 300 301 300 300 300 300 300 300 300 300 300 300 300 300 300 300 300 299 298 298 298 297 297 297 297 297 297 298 298 298 299 299 299 299 299
296 296 298 300 301 301 302 303 304 304 304 304 304 304 304 304 303 304 304 304 305 305 303 301 303 304 304 304 303 302 302 301 301 301 302 302 302 302 302 302 302 301 301 301 300 299 299 300 301 300 298 299 300 301 300 300 301 300 300 300 300 300 300 300 299 300 300 300 299 298 298 297 297 297 297 297 298 298 298 298 298 299 299 299 299 299 298
296 296 298 300 300 301 302 303 304 304 304 304 304 304 304 304 303 304 304 304 304 304 303 303 303 303 302 302 302 302 302 302 301 301 302 301 301 301 302 302 302 301 301 300 300 300 300 300 300 299 299 299 300 301 300 300 300 300 300 300 300 300 300 299 299 299 299 299 298 298 297 297 298 298 298 298 298 298 298 299 299 299 299 299 299 299 298
297 298 300 301 302 303 304 303 303 304 303 303 304 304 304 303 304 304 303 303 304 303 304 304 304 301 300 302 302 301 301 301 300 301 301 301 300 301 301 300 300 301 300 299 299 299 299 299 298 299 299 299 300 301 301 300 300 299 299 299 299 299 299 299 298 298 298 299 298 298 298 298 298 298 298 298 298 298 299 299 299 299 299 299 299 299 298
298 300 302 303 304 304 304 303 302 303 303 303 304 304 303 303 304 303 302 302 303 303 303 303 302 301 302 303 303 301 301 301 301 301 301 301 301 301 300 300 300 300 300 299 299 299 300 299 298 298 300 301 301 301 301 300 300 299 299 299 299 299 299 299 298 298 298 299 299 298 298 298 298 298 299 299 299 299 299 299 299 299 299 299 299 299 299
300 302 303 304 304 304 304 302 302 302 303 303 303 303 302 302 302 302 302 303 303 302 302 302 302 301 302 304 303 302 301 302 303 303 302 301 301 301 300 300 300 300 301 300 299 299 300 299 298 299 301 302 301 301 301 300 300 300 299 300 300 299 299 299 299 299 299 299 299 299 299 299 299 299 299 299 299 299 299 299 299 300 300 299 299 299 299
302 302 303 303 303 304 303 302 302 302 302 303 303 302 302 301 300 300 301 304 304 302 302 302 302 302 302 303 303 303 302 302 302 302 302 301 300 301 301 299 299 300 301 300 299 299 300 300 299 300 301 302 302 301 301 301 300 300 300 300 300 299 300 300 299 299 300 300 300 300 300 300 299 300 300 299 300 300 299 300 300 300 300 300 300 299 299
302 303 303 303 302 302 302 302 302 302 302 303 303 302 300 300 300 300 301 302 302 302 302 302 302 303 303 303 303 303 302 302 301 302 303 302 300 300 301 299 299 301 301 299 298 300 300 300 299 300 301 302 302 302 302 301 301 301 301 300 300 300 300 300 300 300 300 300 300 300 300 300 300 300 300 300 300 300 300 300 300 300 300 300 300 299 299
303 303 302 302 302 302 302 302 301 301 301 303 303 302 301 300 300 300 301 300 300 301 302 302 302 302 302 302 302 302 302 302 301 301 302 300 299 300 302 301 301 300 299 297 299 301 301 301 301 301 301 302 302 302 302 301 300 300 300 300 300 300 300 300 300 300 300 300 300 300 300 300 300 300 300 300 300 300 300 300 300 300 300 300 300 300 300
302 302 302 302 301 301 301 302 300 300 301 302 302 302 302 302 300 301 302 302 302 302 303 303 303 303 303 301 301 302 302 301 301 301 300 298 298 301 303 301 299 297 298 299 300 299 299 300 301 300 301 302 302 302 302 301 301 300 300 300 300 300 300 300 300 300 300 300 300 299 299 299 300 300 299 299 299 299 299 300 300 300 300 300 300 300 300
302 302 302 301 300 300 300 301 300 300 301 302 302 303 304 303 303 304 305 303 303 303 303 303 303 303 302 301 301 302 301 301 302 301 298 298 300 301 300 298 297 297 299 300 300 299 299 300 300 299 300 302 302 302 302 302 301 301 301 301 300 301 301 300 300 300 300 300 300 299 299 300 300 299 299 299 299 299 299 299 299 300 300 300 300 300 299
302 302 301 301 301 299 298 300 301 300 299 300 302 303 303 303 303 303 303 302 302 303 303 303 303 303 301 300 301 301 300 301 302 299 297 299 302 300 296 297 299 300 299 299 300 301 303 302 300 299 301 302 302 302 302 302 302 302 302 301 301 301 301 301 301 300 300 300 300 299 299 300 299 299 299 299 299 299 298 298 298 299 299 299 299 299 299
302 301 299 300 301 299 298 299 301 300 299 299 300 301 302 302 301 302 302 303 303 303 303 302 303 303 301 300 301 301 300 301 301 299 297 299 301 298 296 298 300 301 300 301 303 303 303 302 300 300 301 302 302 302 302 302 302 302 302 302 302 302 302 301 301 300 300 300 300 300 300 300 299 299 299 299 298 298 298 298 298 298 298 298 298 299 299
301 300 299 300 300 299 299 300 300 299 298 299 299 300 300 301 301 302 303 302 303 304 303 302 302 303 301 300 300 300 299 299 300 299 297 298 299 299 299 300 300 299 299 301 303 304 303 302 301 301 301 301 302 302 302 302 302 302 302 302 302 302 302 301 301 301 300 300 300 300 300 300 299 299 298 298 298 298 298 298 298 298 298 298 298 298 298
301 300 299 298 297 297 297 298 299 299 299 299 299 299 300 300 300 302 303 302 303 303 302 302 303 303 301 299 300 301 300 300 300 299 298 299 301 301 300 301 301 301 300 300 301 302 302 302 302 302 301 301 302 302 302 302 302 302 302 302 302 302 302 301 301 301 301 300 300 300 300 300 299 299 298 298 298 298 298 298 298 298 298 299 298 298 298
301 301 299 298 298 298 297 297 299 300 300 299 298 299 300 300 300 301 302 302 302 302 302 302 303 301 299 299 302 303 300 299 299 299 300 301 301 299 299 301 303 303 302 301 300 301 301 301 302 302 301 301 302 302 302 302 302 302 302 302 302 302 302 301 301 301 301 300 300 301 300 300 299 299 298 298 298 298 298 298 299 299 299 298 298 298 298
301 301 300 300 300 300 298 298 300 302 301 300 299 299 300 300 300 301 302 302 302 302 302 301 301 301 301 302 303 302 299 298 298 299 300 299 298 298 300 303 303 302 302 302 301 301 301 302 302 302 301 301 302 302 302 302 302 302 302 302 302 301 301 301 300 300 300 300 300 300 300 299 299 299 298 298 298 298 298 298 299 299 299 298 298 298 298
300 300 300 300 300 299 298 298 299 300 300 300 300 300 300 300 300 301 301 302 303 303 301 300 300 303 304 303 300 299 299 299 299 299 300 299 297 299 302 303 302 301 302 302 301 301 301 301 302 302 302 301 302 302 302 302 302 302 302 301 301 301 301 300 300 300 300 300 300 300 299 299 299 298 298 298 298 298 298 298 299 299 299 298 298 298 298
Wind_Speed
13 12 9 8 7 6 7 5 4 5 5 4 2 1 1 1 2 3 6 15 14 7 2 1 2 2 1 2 4 2 2 0 3 5 7 7 6 6 6 8 9 7 5 2 4 4 2 3 1 2 2 2 1 2 6 8 8 5 2 1 2 2 2 3 4 2 2 3 3 2 3 3 5 5 3 1 0 1 2 3 4 4 3 4 3 2 3
13 12 9 8 6 6 7 5 3 4 5 4 2 3 2 1 3 5 14 16 6 1 2 2 4 4 2 2 2 1 1 4 7 8 7 6 4 3 4 5 5 5 4 3 4 3 2 2 1 1 1 2 2 1 10 11 5 2 3 4 5 2 1 1 4 4 3 4 3 3 3 3 3 3 3 3 2 3 4 3 3 3 3 3 4 3 2
14 12 9 7 5 5 7 6 3 2 3 3 2 2 1 2 4 6 15 10 3 2 1 0 3 4 2 1 1 2 2 8 13 12 10 11 8 3 4 4 3 3 2 4 3 2 2 1 1 0 1 1 3 3 8 9 1 2 5 9 8 3 2 1 2 4 4 4 3 2 2 2 2 3 4 5 3 2 3 4 3 4 4 2 3 3 4
13 10 8 6 5 6 7 6 4 2 2 3 1 1 1 1 2 4 8 5 4 4 4 3 2 2 1 1 1 2 4 7 12 15 13 13 10 4 5 6 3 2 3 6 4 4 3 3 2 1 2 2 2 4 6 6 8 12 14 15 11 4 4 5 4 4 3 3 3 2 1 3 3 3 5 6 3 2 1 3 3 4 6 3 1 5 10
12 9 6 5 6 8 6 5 6 5 2 0 1 1 0 1 2 3 4 3 3 5 6 4 2 1 3 2 1 5 6 6 7 10 8 8 9 5 5 5 1 3 5 6 3 4 4 4 4 2 0 2 1 5 9 8 9 13 11 10 7 4 4 7 10 10 7 6 7 6 6 8 7 5 6 6 3 2 1 3 2 5 7 4 3 9 14
11 10 7 6 8 9 6 5 7 5 2 4 2 2 0 1 1 3 3 2 2 2 4 4 3 1 4 3 2 3 6 5 4 5 4 6 7 5 3 3 5 2 3 5 4 4 4 3 2 1 1 2 2 4 6 6 5 7 6 6 5 5 4 4 9 13 10 9 10 10 13 13 12 11 10 9 8 6 5 3 1 0 2 3 9 14 12
10 9 8 8 9 7 7 8 7 3 2 5 3 2 0 1 1 2 3 2 2 2 2 3 3 2 3 2 3 3 5 6 4 3 2 1 0 1 1 4 6 4 3 5 5 5 4 2 1 2 2 2 1 3 4 4 5 5 5 4 3 4 5 6 10 13 12 10 9 10 13 14 14 15 13 12 12 12 11 9 6 6 7 9 16 16 10
9 8 7 7 8 7 7 8 5 1 3 4 3 4 2 1 3 2 2 3 3 2 1 3 3 2 2 2 3 2 4 5 3 2 1 1 3 4 5 4 6 6 6 7 5 2 3 5 4 3 2 2 1 1 1 1 4 4 3 3 2 3 5 7 7 9 9 9 11 11 14 17 17 15 12 11 12 12 11 10 8 10 11 13 16 16 10
9 9 7 7 9 9 7 6 3 2 3 2 3 3 2 3 6 6 4 2 1 1 0 2 2 1 1 3 3 2 3 3 2 1 4 5 4 3 4 6 6 9 12 10 5 2 4 8 7 5 6 5 2 2 1 1 1 3 3 2 2 4 7 6 3 6 5 5 9 9 9 13 16 14 13 11 9 8 8 7 5 5 11 15 13 10 6
10 9 9 9 9 9 7 4 2 2 3 3 3 3 1 6 6 3 2 1 1 0 1 1 1 1 2 3 3 3 4 4 1 2 6 10 10 5 2 5 7 8 10 8 4 8 18 20 19 20 22 19 12 9 9 6 3 3 3 2 3 4 8 6 2 5 5 4 2 2 1 5 7 7 7 6 6 8 8 8 8 5 9 9 6 6 7
10 10 10 10 10 10 6 2 2 2 3 4 3 2 4 8 6 3 1 1 0 0 1 1 2 1 2 4 3 3 4 4 2 2 2 5 9 9 5 7 10 7 7 8 12 23 31 30 30 33 33 28 20 16 16 15 10 4 3 3 3 5 8 5 1 3 6 6 3 3 3 4 2 4 5 2 4 10 10 8 8 7 6 6 7 9 11
10 10 10 11 11 10 6 3 4 2 2 3 2 1 4 9 8 5 3 1 0 1 1 1 2 2 4 2 1 2 2 3 4 7 5 1 6 11 9 7 9 6 8 14 18 20 20 18 20 23 22 20 20 22 21 17 13 9 5 6 7 6 5 4 2 4 6 4 2 2 4 2 2 2 3 5 9 13 14 12 10 8 9 12 14 12 11
10 9 10 11 11 10 6 4 5 2 1 2 1 2 5 8 8 6 4 1 0 0 1 1 4 5 4 1 2 1 3 9 13 14 10 5 6 11 11 8 7 9 11 11 9 8 6 5 6 7 7 7 11 17 18 15 13 13 10 7 5 6 5 4 3 4 5 3 0 2 3 2 3 4 5 7 8 9 10 10 9 7 7 11 13 12 13
9 9 10 11 11 10 8 3 3 2 2 2 2 5 7 9 9 6 2 1 1 0 1 1 2 2 1 1 2 3 6 10 14 12 9 7 7 10 11 10 9 10 9 5 5 5 3 2 3 3 3 3 4 7 8 9 10 11 10 8 4 4 5 4 3 2 3 5 4 4 4 2 2 3 2 2 2 1 2 5 5 4 5 8 11 12 14
8 9 10 11 11 9 8 7 6 4 3 3 5 8 10 10 10 5 2 1 1 1 1 1 2 2 1 1 2 4 4 4 6 6 6 7 8 9 10 10 8 7 5 2 4 4 2 2 2 2 2 2 2 2 2 3 6 8 7 6 5 4 3 3 3 2 2 5 5 4 3 2 3 4 2 1 1 1 1 3 4 3 6 10 12 12 14
7 8 10 11 10 9 9 8 6 5 6 8 10 11 9 8 6 2 2 2 1 1 3 4 2 1 3 5 6 5 3 1 1 2 3 5 6 7 8 9 7 5 4 4 4 3 2 2 2 2 2 1 1 1 1 1 2 4 6 7 10 9 5 3 5 4 3 4 4 4 2 1 3 6 3 1 1 2 2 2 3 4 8 12 13 13 14
7 9 10 11 10 8 7 7 8 11 13 14 15 12 6 3 2 1 2 3 1 3 6 5 2 3 4 4 4 4 3 2 2 2 2 2 4 4 6 8 8 7 7 5 2 2 3 2 2 2 2 1 0 2 2 1 2 3 4 7 9 8 5 3 5 5 4 4 3 2 1 1 3 5 2 0 1 2 3 2 3 7 11 13 13 14 15
9 10 10 10 9 6 6 10 13 16 17 16 14 9 5 3 2 2 2 1 1 4 10 9 6 5 4 3 3 3 3 3 3 3 2 0 2 3 3 4 4 6 7 3 1 2 3 2 1 2 2 1 1 1 2 2 2 2 2 3 4 4 3 2 4 4 5 4 3 2 1 1 2 2 0 1 2 3 3 1 5 12 15 13 13 16 17
9 10 9 8 7 8 11 14 17 18 18 15 10 6 5 4 4 5 6 6 5 6 11 13 11 10 9 6 5 4 3 3 4 3 2 0 1 2 5 5 3 3 4 3 2 2 2 1 1 1 2 1 0 1 2 2 2 1 1 1 2 2 2 2 2 3 3 3 3 3 2 1 2 1 1 2 2 2 1 4 9 15 17 15 14 16 16
9 9 8 8 8 10 13 16 18 18 16 12 8 7 6 6 6 8 7 8 9 11 14 16 16 16 14 12 9 6 3 2 4 3 1 1 2 2 3 3 3 2 2 3 2 1 1 2 1 0 2 2 1 2 3 3 2 1 1 1 2 2 2 3 3 2 2 3 3 3 2 3 4 4 3 0 1 3 9 13 14 15 17 16 15 15 14
8 8 7 7 8 11 14 16 18 16 13 10 7 7 7 7 8 10 10 9 9 9 11 15 17 16 15 15 14 10 7 4 2 2 3 5 4 1 1 2 2 2 1 1 2 1 1 2 1 1 2 2 0 2 3 4 3 2 2 1 2 2 1 2 3 1 1 2 3 1 2 4 4 3 3 2 3 9 16 17 15 14 15 15 14 14 14
7 7 6 7 8 12 14 16 16 13 10 9 9 9 10 11 12 14 15 14 13 11 10 13 16 16 15 14 14 13 10 7 4 2 5 7 4 2 3 5 3 3 3 3 3 2 1 2 2 2 2 2 1 2 2 2 3 2 1 2 2 1 2 4 4 2 2 4 4 3 4 6 5 4 5 8 11 13 14 15 15 14 14 15 17 18 17
6 5 5 6 9 12 14 15 14 12 10 11 11 12 13 13 14 15 16 16 17 15 12 12 13 13 13 14 13 12 11 9 7 3 3 5 4 3 4 4 4 4 4 3 3 3 2 2 2 2 2 2 2 3 3 2 3 4 1 3 4 5 4 4 5 7 7 8 8 7 8 10 11 11 11 13 14 13 13 15 16 14 14 17 20 21 21
5 4 4 5 9 12 13 13 13 13 12 12 12 12 13 12 11 11 11 10 10 11 10 12 13 11 9 11 10 9 10 11 9 5 0 4 4 2 3 5 4 4 5 6 7 9 7 4 1 2 3 1 1 2 3 3 3 5 4 4 4 2 2 4 6 6 4 5 6 7 10 12 13 14 14 14 13 12 13 16 17 16 18 21 23 24 25
4 3 4 5 8 11 11 12 14 15 14 13 12 12 13 14 12 11 10 8 8 7 5 8 14 12 6 6 8 8 9 11 10 8 3 4 6 4 5 7 6 6 9 11 13 12 9 4 1 3 3 1 1 1 2 2 3 5 4 3 3 3 4 6 6 5 4 6 8 11 13 13 12 12 13 14 14 15 17 20 22 23 25 26 26 26 25
3 3 3 5 7 9 9 9 12 15 15 14 13 12 12 12 12 12 11 9 11 11 6 4 11 14 9 7 9 10 10 9 9 11 10 6 5 4 6 9 10 11 14 15 14 13 10 4 1 3 3 1 1 2 1 3 4 5 3 3 4 6 6 6 7 8 8 8 11 13 14 12 10 11 13 15 19 23 25 27 28 28 28 27 26 25 24
3 2 2 4 6 7 8 7 8 11 13 13 12 11 11 10 10 10 9 6 6 7 4 1 7 16 18 17 15 13 10 7 8 12 15 14 11 9 9 13 15 17 17 15 12 12 10 5 3 3 3 5 6 4 2 4 6 5 5 4 5 6 6 8 10 8 5 6 11 12 9 8 9 13 17 21 25 29 30 30 30 29 29 28 27 25 24
2 1 1 3 4 6 7 6 6 8 9 9 9 10 11 11 9 9 8 6 6 8 7 5 6 11 15 19 19 15 12 10 10 13 16 15 14 13 14 16 17 18 17 14 11 8 6 4 4 3 3 6 7 3 2 3 4 4 4 2 0 3 7 7 6 4 6 13 17 13 11 13 15 18 22 26 28 31 31 30 29 29 28 28 28 27 24
2 0 1 1 3 5 6 6 6 6 7 6 6 8 9 10 10 9 9 11 13 15 15 14 12 10 10 14 18 19 17 14 13 15 16 16 16 17 18 19 20 21 20 19 15 9 6 6 5 4 4 5 4 2 2 2 2 3 3 3 4 4 9 7 6 8 13 18 19 17 18 20 20 23 28 29 29 31 31 29 28 28 27 27 27 26 24
2 1 3 2 2 4 5 6 6 6 6 5 5 5 7 8 8 7 8 9 10 13 14 11 7 7 9 13 18 21 20 18 17 18 20 21 22 23 23 23 24 24 23 21 16 9 6 7 6 6 7 6 4 2 2 2 3 3 4 4 3 10 10 6 8 15 19 20 22 25 26 25 26 29 31 29 29 30 30 29 28 28 27 26 26 24 22
2 2 4 4 1 3 5 6 7 7 7 5 3 3 3 4 6 7 8 7 8 14 17 13 6 4 7 12 15 17 19 20 20 21 23 24 23 24 24 25 25 24 23 22 17 9 5 5 4 5 7 8 6 3 2 3 4 3 3 4 8 11 10 11 17 23 25 28 31 31 28 28 30 30 28 28 29 30 30 30 29 28 27 25 23 21 19
3 4 6 6 3 1 3 4 6 8 8 6 5 5 4 4 6 9 10 10 11 14 14 10 4 1 2 5 10 13 14 17 18 19 19 19 19 20 21 22 22 21 19 16 12 8 6 5 6 8 10 9 6 3 2 3 4 4 5 9 12 15 18 22 25 27 30 36 37 30 23 24 29 29 28 29 30 29 31 31 29 27 25 23 20 18 16
3 5 7 8 5 1 2 3 4 6 7 6 6 6 6 6 7 8 9 9 9 10 9 5 2 1 0 3 8 10 10 11 14 16 15 14 14 14 16 18 18 17 16 12 7 5 6 7 8 9 11 11 7 3 3 5 5 7 10 14 18 22 26 28 30 31 33 36 35 30 27 28 30 31 31 30 29 29 30 29 26 24 22 20 17 16 13
3 6 8 9 7 3 0 1 2 3 4 5 5 5 6 6 6 7 7 6 7 8 8 6 3 1 1 2 4 7 8 9 11 11 10 12 14 13 11 13 14 13 13 12 8 5 6 7 6 5 6 8 6 3 3 4 7 11 15 19 24 29 31 30 31 31 30 30 32 34 34 33 33 32 31 30 29 28 27 25 24 22 20 17 16 14 12
2 6 9 10 7 4 2 0 0 1 2 3 4 5 6 6 6 5 5 4 5 5 5 5 3 1 2 1 2 5 8 9 9 8 6 9 14 13 10 9 9 8 7 8 6 4 4 6 5 2 2 4 4 3 4 6 10 14 18 22 27 31 30 28 27 27 28 30 32 34 34 34 34 33 31 30 28 26 24 23 21 19 18 16 15 13 12
3 6 9 10 8 5 3 1 1 3 3 3 4 6 7 7 7 7 5 4 5 4 4 4 3 1 1 1 1 3 6 6 7 8 6 6 9 11 9 6 5 5 6 6 4 3 4 5 4 2 1 3 3 3 9 14 16 18 23 26 28 29 28 27 27 29 30 32 33 34 34 34 34 32 30 29 27 25 23 22 20 18 17 16 15 14 13
3 7 9 9 8 6 4 2 2 4 4 4 6 8 8 7 6 6 6 6 6 6 5 5 3 1 2 2 1 1 3 3 4 6 6 4 4 7 9 6 2 2 4 4 3 4 6 6 5 2 2 4 5 11 18 22 23 25 28 28 27 28 29 29 30 33 33 32 33 34 34 33 31 30 29 28 26 24 23 22 20 18 17 16 15 15 14
4 7 9 8 7 5 4 2 3 5 6 5 5 5 5 4 4 4 4 5 5 5 5 5 3 2 3 3 2 2 2 2 2 3 4 4 2 3 5 4 2 2 2 1 3 5 5 4 3 3 3 5 9 18 22 23 25 28 29 28 28 30 30 30 32 35 34 31 30 32 32 31 30 29 28 26 25 24 22 21 19 18 16 15 15 15 14
5 7 7 6 5 4 3 3 4 6 6 4 3 2 2 3 2 1 3 4 3 3 4 3 2 3 3 2 2 3 3 2 2 2 2 3 2 1 2 2 2 3 2 1 3 4 3 2 2 2 3 4 8 17 22 23 26 28 27 26 29 31 31 31 32 34 33 32 32 33 32 30 29 28 27 26 24 22 20 19 17 16 14 13 13 14 13
5 6 6 5 4 3 4 4 4 6 6 3 2 2 2 3 2 1 2 2 2 2 2 3 3 3 4 4 4 3 3 3 3 3 2 2 2 2 2 2 2 2 1 1 3 3 2 1 1 2 3 4 9 18 23 25 26 26 25 25 28 30 30 30 29 29 29 30 30 29 27 26 25 24 23 22 21 20 19 17 16 14 13 13 12 12 11
4 5 5 4 4 4 5 5 4 4 4 2 2 2 2 2 2 2 2 2 0 0 2 4 4 2 3 5 4 4 4 4 5 5 4 3 3 3 2 1 1 1 1 0 1 2 3 2 1 1 3 8 14 21 24 25 26 26 25 25 27 27 27 27 26 25 25 25 25 24 23 22 20 19 18 18 17 17 16 15 14 13 13 13 12 11 10
4 5 5 3 3 5 5 4 3 3 2 2 2 1 1 1 1 1 1 1 1 1 2 3 3 4 5 6 5 5 5 4 3 3 2 2 3 3 2 0 1 2 1 0 1 2 2 2 1 1 6 12 19 23 25 26 27 26 26 27 27 26 25 25 24 23 22 21 21 21 20 19 17 16 14 13 13 13 13 14 14 14 13 13 12 11 11
4 5 5 4 4 4 3 1 1 1 1 2 2 1 1 1 1 1 1 1 2 3 4 5 6 7 8 6 5 5 5 4 3 4 3 2 1 2 2 2 1 2 1 1 1 2 1 2 1 5 13 19 21 23 26 27 27 27 28 27 27 26 24 23 22 21 20 19 18 18 18 17 16 14 13 12 12 13 14 14 14 14 14 13 13 12 11
4 5 5 4 3 2 2 1 0 1 1 0 1 1 1 1 0 0 0 2 4 5 6 9 10 8 5 4 4 4 3 3 4 4 3 2 2 2 2 1 1 1 1 1 1 1 1 2 2 9 19 25 25 25 28 29 28 29 29 28 27 26 24 23 22 21 20 19 19 18 17 16 15 15 14 13 13 13 14 14 14 14 14 14 13 12 11
4 4 4 2 1 0 2 1 1 0 1 1 1 2 2 2 2 1 2 5 7 7 10 13 13 10 6 4 4 3 2 2 3 2 1 1 2 2 1 2 1 1 1 1 1 0 1 1 2 12 25 30 29 29 30 30 29 29 29 29 28 27 25 24 23 23 21 20 19 18 18 18 18 18 16 14 13 13 13 13 13 13 13 13 12 11 11
4 3 3 2 1 0 1 1 0 0 1 2 3 4 4 4 4 4 6 7 8 10 13 16 15 12 7 4 3 2 2 3 2 2 1 1 2 1 1 2 1 1 1 1 1 2 2 1 6 20 32 35 33 31 31 30 29 29 29 29 28 27 26 25 25 24 22 21 19 19 19 20 20 19 16 14 13 12 11 11 12 12 11 11 11 11 11
4 3 2 1 0 0 0 1 2 2 2 3 5 7 7 6 6 7 8 8 9 11 15 15 13 11 8 5 3 2 3 3 2 1 2 1 2 1 1 0 1 1 1 2 3 3 2 3 12 27 37 37 34 33 33 31 30 30 29 28 27 27 26 26 26 25 24 22 20 19 20 21 21 19 17 15 14 12 11 12 12 11 10 10 10 10 10
4 2 2 1 1 1 2 2 3 3 3 3 4 5 7 7 7 8 9 9 10 14 17 16 12 8 5 4 3 2 2 3 2 1 1 1 2 1 1 1 1 1 2 3 3 2 2 5 15 28 37 38 36 35 34 33 32 31 30 28 27 26 26 26 26 25 24 23 21 21 21 21 21 19 17 16 15 14 13 13 12 11 10 9 9 9 9
4 3 2 1 1 1 2 2 1 2 4 5 5 5 7 7 7 8 9 10 13 17 18 15 11 6 2 2 2 1 1 2 1 1 1 1 1 1 1 1 1 2 2 2 3 4 4 5 12 25 36 39 38 36 35 34 33 31 30 28 27 25 25 25 24 23 23 22 22 21 22 22 21 19 17 16 16 15 13 13 12 11 10 9 8 8 8
4 3 2 2 1 1 2 2 0 0 2 4 6 7 8 9 8 8 8 12 17 19 15 10 7 4 1 1 2 1 0 0 2 2 1 1 1 1 1 2 2 2 2 3 5 7 7 6 12 24 34 38 38 36 35 34 33 32 30 28 26 24 24 23 22 22 22 21 21 22 23 22 21 19 18 17 16 15 14 13 13 12 11 10 8 7 6
4 3 4 5 5 4 3 3 2 1 2 3 5 6 8 11 11 8 9 15 20 16 9 4 4 3 2 1 1 1 1 2 2 1 0 1 1 2 2 2 3 4 4 5 6 7 7 7 14 23 31 36 37 36 34 33 32 31 30 28 25 24 23 23 23 22 22 22 22 23 23 22 21 20 18 17 17 16 15 14 13 13 12 11 9 7 6
4 3 3 6 8 8 6 4 3 4 4 3 3 4 7 11 11 9 11 18 20 13 6 5 4 2 1 1 2 2 2 2 1 0 1 2 2 3 3 3 4 6 8 7 6 6 7 9 13 21 28 33 35 34 33 31 31 30 28 27 25 24 24 24 24 23 23 23 23 23 22 21 21 20 20 19 18 17 16 15 15 14 13 12 11 9 8
Wind_Direction
354 356 355 349 340 331 333 330 338 353 358 359 356 343 319 232 142 66 129 145 140 139 164 161 171 208 255 263 263 237 109 42 284 282 273 253 226 225 235 225 217 223 222 177 129 127 79 38 100 119 110 155 207 240 209 176 151 148 141 133 164 152 86 94 100 97 97 102 104 87 79 90 80 56 33 22 41 124 136 154 144 136 140 138 144 179 153
355 356 352 345 343 343 343 335 313 336 360 0 1 17 16 137 66 89 148 147 124 150 179 147 192 219 249 259 281 60 105 245 246 252 254 243 240 261 251 221 210 224 209 149 133 137 94 41 76 91 121 152 14 269 186 171 140 153 182 162 167 170 10 91 125 120 111 116 140 140 90 65 71 60 15 2 60 102 105 101 111 140 166 170 173 172 140
350 353 355 353 358 3 357 346 323 336 12 353 327 13 30 135 63 111 159 159 10 337 203 310 198 203 228 236 40 56 244 244 238 238 244 241 239 253 271 258 225 217 163 109 89 77 89 101 135 80 135 138 20 53 173 184 124 83 133 124 126 121 29 12 148 141 144 142 144 149 120 89 73 54 16 17 53 100 113 122 146 169 165 178 194 154 127
348 354 359 0 15 14 360 354 346 326 348 347 313 178 247 223 71 123 172 201 308 296 282 288 194 181 191 72 30 231 248 266 246 237 243 245 234 231 275 272 236 189 116 96 65 31 51 87 125 168 138 136 359 49 113 137 104 99 102 101 107 101 50 44 59 87 109 102 72 24 87 110 93 49 19 18 7 327 58 137 168 156 148 174 229 136 145
357 2 6 20 26 9 353 355 349 320 268 259 101 153 341 7 105 138 172 213 264 280 278 264 226 169 152 144 287 237 242 278 259 238 229 208 190 197 264 272 138 123 120 107 65 29 42 64 101 141 67 115 102 58 83 97 99 102 92 79 92 105 70 55 59 67 71 75 79 76 83 89 82 66 41 26 9 335 93 121 128 131 144 177 171 145 152
4 9 23 37 18 1 360 2 348 332 218 177 128 113 133 8 124 174 185 193 190 250 255 230 220 150 138 167 254 234 246 265 257 248 230 185 175 186 256 338 20 42 115 109 98 91 71 36 71 130 86 125 124 62 67 59 71 100 81 50 86 101 79 81 84 77 71 74 82 85 89 87 75 66 58 45 45 57 75 71 19 117 141 148 148 146 143
5 19 32 24 5 3 21 9 348 348 157 164 125 71 95 336 341 206 213 239 233 243 230 187 178 118 112 196 254 248 262 267 251 255 281 300 19 98 75 12 18 27 66 97 122 142 132 122 196 179 112 96 102 96 89 54 50 81 77 61 89 90 86 114 104 81 65 66 79 89 92 88 72 60 57 59 65 68 76 82 73 70 82 110 128 126 109
13 26 24 11 6 14 29 14 357 44 133 138 78 42 69 6 340 323 281 272 253 255 229 153 148 112 130 222 264 248 256 271 271 277 322 358 356 36 80 73 60 62 62 77 102 173 159 129 144 191 153 115 115 124 140 88 54 48 64 81 62 86 128 145 113 80 62 64 84 92 91 88 75 58 49 56 66 65 67 74 71 77 94 110 116 111 97
19 19 13 15 18 22 24 17 19 102 115 92 47 54 81 319 313 302 288 283 245 240 62 126 120 94 172 227 257 231 244 276 284 11 35 45 33 30 95 96 73 64 64 60 48 23 73 89 99 125 117 98 84 67 74 185 112 55 59 71 32 87 137 174 151 88 76 85 97 93 92 92 77 53 37 39 54 62 59 52 50 102 125 125 121 118 116
15 13 15 18 20 24 25 19 46 92 78 58 75 101 358 322 316 287 266 296 301 279 69 97 144 167 199 216 232 249 272 293 293 73 31 33 40 22 13 87 76 66 62 40 16 91 94 93 94 96 91 83 78 80 77 65 61 92 100 54 32 112 137 164 161 98 125 172 136 18 220 127 83 35 13 28 73 90 75 49 43 83 128 132 129 129 126
14 13 15 14 14 20 24 48 131 104 72 55 81 114 349 347 6 29 341 307 292 346 59 135 173 182 241 232 230 265 288 308 327 90 41 6 32 29 21 84 85 67 71 89 105 102 97 94 91 86 83 80 74 70 67 56 44 57 131 102 85 118 127 134 114 107 148 187 255 293 199 150 78 345 320 322 104 98 86 60 42 51 86 99 103 116 122
21 15 14 11 11 17 30 129 154 132 78 79 131 182 356 6 21 22 355 348 42 354 357 232 214 258 293 263 218 300 311 2 36 78 94 22 31 37 33 66 87 101 120 116 111 104 94 89 86 78 71 72 68 58 53 48 36 34 69 115 126 127 114 102 74 103 138 176 248 187 154 111 27 27 57 98 108 99 89 73 53 63 97 107 108 113 116
26 17 12 10 10 18 38 135 167 170 77 114 179 294 345 358 7 10 0 1 350 346 48 275 260 273 291 249 123 72 66 71 69 72 74 58 40 39 34 45 87 128 144 129 108 105 95 72 72 64 43 47 59 52 45 41 34 31 37 59 107 128 117 98 78 94 129 141 133 149 139 74 75 101 101 109 112 103 91 73 53 60 99 113 114 112 110
29 19 12 12 12 19 31 71 125 87 55 50 0 343 342 340 342 347 344 335 328 228 131 172 253 278 311 203 131 85 66 62 65 63 52 49 49 43 48 69 95 126 152 143 74 70 83 58 51 51 14 5 44 45 36 39 39 33 28 24 41 109 118 111 82 66 124 114 81 94 131 139 124 126 142 142 110 63 89 87 68 59 88 112 117 115 114
29 18 15 17 17 22 34 48 59 57 32 357 341 336 334 331 329 324 243 237 305 135 96 33 274 269 324 350 66 85 77 53 59 52 33 46 59 57 64 78 91 116 145 122 48 38 52 87 84 74 44 38 73 55 4 27 40 36 34 33 38 55 86 130 111 72 123 117 102 116 147 191 196 171 154 105 108 269 262 102 90 84 112 124 124 120 123
27 21 20 22 27 34 43 47 40 19 3 352 342 338 333 326 327 334 181 215 229 51 354 341 328 123 81 64 64 77 87 68 70 59 24 24 34 52 68 69 71 95 101 73 57 51 61 74 91 107 79 41 151 113 44 22 49 39 32 40 53 55 50 80 102 112 142 122 116 148 166 187 165 156 144 84 135 226 231 131 120 132 138 138 132 127 132
25 25 26 32 42 46 42 28 7 0 1 355 347 347 346 332 341 72 157 195 187 43 18 14 68 95 79 71 62 63 75 83 84 85 78 10 351 17 55 58 57 68 74 65 48 50 67 75 88 106 89 352 276 132 112 76 73 48 12 23 43 45 30 56 96 119 132 103 94 126 126 49 129 144 154 51 117 190 200 176 154 154 151 147 141 138 143
27 29 34 41 47 42 19 8 360 356 358 356 353 3 33 51 70 116 115 135 172 37 38 50 69 72 71 88 97 101 109 108 86 72 80 26 331 357 39 52 46 49 55 67 91 64 72 80 63 92 101 334 296 157 125 93 69 35 353 24 52 40 21 52 96 109 109 101 103 106 73 91 135 139 203 162 149 186 208 149 136 148 151 149 147 147 149
31 33 38 39 36 25 14 6 357 353 357 0 7 33 56 56 82 100 75 68 83 63 53 61 70 70 72 78 85 98 117 127 119 116 117 94 72 75 72 70 60 35 42 64 87 70 73 88 57 91 101 84 353 74 69 61 62 49 31 84 87 69 59 68 85 100 100 95 107 115 110 142 152 129 132 151 166 190 137 108 129 144 148 149 148 147 146
34 38 38 32 25 20 12 0 352 354 3 14 28 49 62 66 83 90 81 78 83 74 66 68 70 69 70 68 68 72 77 103 119 119 117 140 153 138 93 77 70 60 57 71 77 75 123 108 105 101 86 81 100 111 94 79 68 39 358 21 50 63 95 109 104 105 103 102 119 135 141 151 157 147 137 170 287 147 129 124 130 140 144 145 144 142 145
37 39 36 32 23 16 9 359 356 3 16 31 46 58 70 79 87 91 90 85 78 71 70 73 72 70 69 67 66 66 65 71 101 144 138 133 141 172 156 144 124 95 94 96 89 95 138 116 115 96 90 89 171 143 130 118 96 49 352 66 76 12 22 138 156 202 198 128 136 143 91 121 152 162 140 116 131 139 137 133 131 136 141 142 140 142 150
41 41 39 36 21 13 9 3 5 18 37 55 70 79 85 86 87 89 88 82 77 76 78 79 76 71 67 65 63 62 61 61 66 129 150 139 129 97 118 125 108 103 133 127 103 109 139 126 132 124 104 99 93 99 103 105 117 124 334 3 51 55 78 102 111 104 73 81 103 111 93 97 108 112 111 117 124 131 134 130 127 131 139 143 142 144 149
46 48 42 34 18 14 13 12 18 38 58 68 75 78 80 81 82 84 85 84 82 81 83 87 84 75 69 67 63 59 58 57 58 69 159 155 125 93 119 129 100 103 135 135 114 125 131 119 125 120 104 100 106 109 85 52 118 138 86 47 87 100 85 79 102 115 95 71 76 93 96 95 98 103 108 117 123 128 127 123 123 126 134 139 140 141 141
46 53 49 35 21 19 21 25 38 56 64 65 67 67 67 70 73 77 79 80 81 81 79 71 62 49 46 53 59 65 61 53 52 48 207 192 168 129 156 158 137 128 134 131 129 126 115 104 110 102 102 112 149 120 102 90 134 145 118 100 114 110 75 92 119 139 129 83 81 94 98 102 106 109 113 116 120 127 129 125 123 124 128 131 133 134 133
40 53 57 41 27 26 30 38 54 64 64 61 61 61 62 64 66 69 71 73 80 88 81 47 37 28 31 57 58 58 51 41 37 35 27 202 194 190 171 156 145 141 135 133 136 127 106 87 109 108 111 154 268 109 106 115 154 162 147 132 137 140 130 119 111 107 103 108 112 104 97 99 105 112 119 122 122 124 127 126 125 126 127 128 128 128 127
35 52 65 50 33 32 35 43 55 62 63 62 61 60 61 61 59 60 66 76 83 83 90 59 42 45 62 70 45 31 29 30 36 44 54 91 128 150 162 147 134 132 129 125 121 108 89 76 93 91 99 139 121 110 103 102 126 138 131 129 140 140 136 125 115 109 98 104 122 117 101 93 99 111 121 127 126 125 125 125 126 127 126 125 125 124 122
30 62 78 58 40 33 34 38 47 52 54 58 61 61 60 57 50 46 48 62 86 80 79 135 56 56 59 57 44 34 39 54 61 58 63 79 96 109 130 131 126 126 121 110 98 88 81 79 72 63 86 108 98 81 72 95 109 112 108 119 136 139 135 129 128 131 134 146 153 146 120 108 121 126 128 130 129 128 127 128 129 128 127 127 125 123 121
22 74 115 65 46 34 30 31 35 38 40 50 63 67 63 57 54 52 52 70 115 113 100 92 74 63 56 52 52 56 65 75 78 73 75 86 97 104 114 121 120 117 109 97 86 75 68 79 85 74 103 112 98 75 72 98 94 91 103 119 193 171 162 151 130 121 145 155 157 148 121 122 133 135 133 134 132 130 130 131 131 130 129 128 127 125 125
4 78 191 108 46 35 28 23 20 24 30 44 66 73 70 66 66 72 80 91 104 106 96 82 72 65 52 51 62 73 78 80 82 84 88 94 96 97 102 105 102 99 97 92 88 79 70 82 85 71 77 102 109 104 97 92 77 78 69 334 306 183 164 149 100 97 122 141 150 140 124 126 135 137 135 135 133 132 131 131 131 130 129 129 127 126 125
326 233 207 199 41 33 31 20 8 11 22 39 68 82 77 70 67 75 88 95 103 105 98 86 74 73 64 58 66 77 83 85 86 87 88 89 89 90 93 93 91 91 89 86 83 81 76 74 72 63 63 75 98 120 112 109 102 76 24 8 110 149 154 147 133 132 133 138 141 134 127 128 132 133 134 134 134 133 131 130 130 130 130 129 128 125 124
281 229 208 205 200 29 28 18 10 10 13 22 60 96 89 70 70 81 88 98 115 111 101 93 90 93 71 56 57 69 79 84 86 85 84 83 84 86 88 87 85 82 79 76 74 70 60 56 60 59 57 63 78 94 100 113 111 81 38 79 123 139 139 133 136 138 137 136 134 127 123 127 132 132 133 135 135 132 129 128 130 131 131 131 129 126 125
265 223 205 204 207 30 29 21 18 19 19 28 62 97 103 89 84 91 99 109 117 113 104 94 84 81 59 44 46 58 74 83 83 82 80 79 80 81 79 76 74 72 71 72 69 54 38 46 62 59 51 55 74 89 61 75 99 108 105 111 120 126 127 129 132 134 137 137 132 124 123 132 136 136 137 137 136 132 130 130 132 132 132 132 129 127 126
254 217 200 199 202 202 32 25 19 19 26 42 70 94 102 97 90 92 103 114 112 101 90 85 87 72 37 50 47 49 63 76 74 68 64 64 71 74 67 64 66 66 62 61 61 50 47 56 65 63 55 53 64 88 66 61 89 118 119 116 119 122 124 128 131 134 138 139 136 133 137 141 140 138 138 137 136 134 133 133 134 134 134 133 132 131 129
240 205 192 191 194 199 163 34 13 16 38 57 77 99 105 101 95 96 104 109 103 89 77 75 89 70 20 41 40 41 51 61 61 57 52 54 62 69 63 57 61 60 52 50 56 64 53 44 44 52 45 38 44 69 80 84 110 121 119 118 123 125 124 125 129 134 139 141 138 136 137 139 139 138 138 138 137 137 137 136 137 138 138 137 135 133 129
210 185 181 184 187 189 198 296 348 112 98 86 93 108 114 108 97 99 111 109 94 84 70 68 80 83 61 52 22 37 53 58 55 56 59 55 55 59 60 57 54 48 42 43 48 52 39 27 23 23 2 358 15 58 112 135 134 126 121 122 125 126 125 124 129 136 140 140 137 136 137 139 140 140 141 141 141 142 142 142 142 143 141 138 135 130 126
184 173 172 176 179 186 206 236 169 150 139 120 117 119 121 117 99 89 89 85 78 84 95 93 88 95 109 111 39 47 62 58 46 49 62 60 47 45 50 63 61 42 37 41 43 40 27 21 25 35 355 356 28 102 140 145 140 132 129 131 132 133 133 133 135 138 139 139 139 140 141 143 143 144 145 147 147 148 149 149 150 149 143 138 134 131 128
163 166 167 169 175 186 204 220 186 169 156 138 131 126 121 118 109 95 88 80 72 78 101 109 97 91 128 122 100 62 68 52 34 39 43 45 42 37 40 54 72 29 35 39 24 16 22 28 42 66 33 32 98 138 144 143 141 138 136 136 137 138 136 137 138 138 138 138 142 144 146 148 149 150 152 152 153 154 155 155 154 151 146 141 138 134 131
154 159 160 162 165 172 186 195 186 179 168 147 131 124 113 106 108 96 78 71 68 71 85 98 112 137 130 101 63 72 84 64 60 56 38 35 51 40 34 45 62 35 42 34 0 13 28 32 43 66 55 69 123 143 146 144 143 142 140 139 141 140 138 140 143 143 140 141 147 152 154 155 156 156 156 156 157 158 158 157 155 153 148 144 140 136 133
154 156 154 154 154 158 171 181 179 176 173 157 126 116 103 89 95 72 28 34 55 67 70 87 126 141 133 109 75 89 99 76 60 67 39 31 47 43 32 52 48 38 68 86 5 23 52 40 20 69 91 99 137 151 151 148 148 147 145 143 144 143 143 146 148 148 147 148 152 155 156 156 157 159 160 160 160 160 161 161 160 159 156 152 148 144 141
158 159 154 156 160 157 160 168 168 168 171 162 98 81 77 62 59 59 31 34 44 49 63 102 129 127 127 134 123 97 90 82 85 107 103 54 50 73 93 81 41 31 67 39 359 17 73 70 29 114 135 151 163 161 157 155 155 154 151 150 150 149 149 150 151 150 149 148 151 153 154 153 153 156 159 161 162 163 164 165 166 166 165 164 160 153 149
160 162 157 158 168 166 161 161 157 155 159 144 54 50 66 51 33 48 70 70 32 316 106 125 137 127 119 127 119 104 106 104 98 105 104 55 40 67 92 81 47 56 77 35 358 34 79 85 52 144 164 170 170 167 163 162 162 160 156 156 157 156 154 154 156 155 153 154 157 159 159 159 157 157 158 161 164 166 168 171 173 174 174 174 171 165 160
161 167 166 163 161 161 160 156 142 132 135 115 61 29 2 8 21 41 81 143 188 163 128 135 139 121 110 111 108 109 119 116 95 98 102 47 43 77 92 37 33 72 88 142 33 43 79 110 91 199 187 179 175 173 170 168 166 164 162 162 164 164 162 163 165 164 163 163 165 166 168 170 170 167 167 168 171 175 178 179 180 180 178 177 176 174 169
151 156 156 156 154 151 149 138 106 88 70 72 77 37 333 354 33 2 315 194 168 148 134 137 136 123 111 106 102 104 112 110 85 79 85 75 69 83 75 43 41 73 103 146 63 55 108 156 176 183 183 182 181 178 174 171 169 167 167 167 169 170 169 169 171 173 173 173 171 171 172 175 175 173 172 172 174 179 182 183 184 184 181 179 178 176 174
157 151 147 150 154 150 153 173 118 130 178 168 135 147 183 190 177 285 268 174 171 165 158 157 155 143 119 102 103 106 115 113 87 72 72 81 72 55 58 68 65 80 125 140 35 40 167 236 224 179 177 182 185 183 180 177 175 174 174 174 175 176 176 176 176 176 177 177 176 174 174 177 177 174 170 168 169 173 177 180 182 185 184 183 182 181 179
173 163 146 135 17 97 168 211 292 193 192 208 167 144 159 176 190 209 191 174 169 167 167 167 162 146 119 108 116 115 110 105 88 66 60 91 66 41 70 122 103 72 115 100 30 346 212 257 202 176 178 183 187 186 185 184 183 181 181 182 182 183 184 184 182 180 178 178 178 176 177 180 180 175 169 166 167 170 173 176 177 178 179 180 181 182 182
184 177 146 120 338 303 142 130 331 185 194 205 188 175 178 186 190 189 182 178 177 174 171 168 160 144 123 109 114 110 104 104 93 41 1 91 93 57 98 138 108 58 68 65 279 233 229 246 186 179 181 184 186 186 188 190 189 189 189 189 189 190 191 189 188 186 184 182 182 181 180 181 179 174 168 167 168 170 173 174 171 169 169 171 173 177 180
182 175 134 110 171 257 129 188 218 223 218 202 194 191 187 180 179 183 185 185 183 175 166 158 150 141 126 107 102 97 75 76 83 20 356 87 118 77 28 127 160 124 137 193 232 237 248 224 191 183 182 183 185 187 190 192 193 194 194 193 192 194 195 195 194 193 190 190 190 188 184 181 178 173 169 168 168 166 164 164 163 160 159 160 164 171 180
183 174 152 148 182 191 184 206 228 232 215 198 198 196 189 181 180 190 195 190 180 172 164 154 143 134 112 84 90 100 49 56 86 109 34 81 118 92 25 25 324 249 202 200 214 225 237 215 192 184 182 183 185 188 191 193 195 196 197 197 197 197 197 199 199 199 198 197 197 193 188 183 178 174 171 171 168 163 161 162 162 159 160 163 169 180 190
187 180 172 176 220 216 197 204 254 242 220 218 214 202 197 196 192 190 191 187 176 171 167 157 143 136 119 44 77 103 46 46 91 113 56 79 127 148 127 137 224 242 223 207 218 231 239 217 189 183 183 184 186 188 191 193 194 195 197 199 200 199 199 200 202 203 205 205 202 196 190 185 180 177 176 174 171 168 168 169 169 168 170 174 181 192 204
202 206 203 208 227 216 183 172 113 346 235 227 216 210 214 214 202 191 191 184 171 163 159 150 134 123 107 47 67 61 348 166 125 110 112 170 161 142 147 190 218 219 206 214 227 233 236 210 183 182 184 186 187 190 192 193 195 196 197 199 200 201 202 202 202 204 205 205 201 194 188 185 184 185 183 179 176 176 176 178 180 181 180 179 180 184 191
205 220 226 225 223 209 184 176 194 231 239 223 215 219 223 218 211 203 186 173 165 159 151 141 126 102 74 74 106 107 133 140 117 82 191 207 164 144 163 210 225 216 213 219 224 228 229 208 187 183 184 186 188 191 193 194 195 196 196 198 200 201 200 199 199 199 199 196 191 187 186 187 190 192 189 184 182 183 184 186 190 190 188 188 189 183 174
200 208 222 225 221 215 208 214 245 263 255 237 232 236 227 221 220 211 181 170 169 168 159 143 130 101 82 144 136 113 114 114 79 11 221 205 187 190 203 213 205 204 210 216 217 218 223 215 197 188 186 186 187 190 192 194 195 194 194 195 196 196 196 195 195 194 191 187 184 185 187 189 192 193 191 188 189 190 191 192 194 194 195 199 201 197 191